SCP
0 0 0 0 0 0 0 0 0 0 0 0 0 0 0 0 0 0 0 0 0 0 0 0 0 0 0 0 0 0 0 0 0 0 0 0 0 0 0 0 0 0 0 0 0 0 0 0 0
0 0 0 0 0 0 0 0 0 0 0 0 0 0 0 0 0 0 0 0 0 0 0 0 0 0 0 0 0 0 0 0 0 0 0 0 0 0 0 0 0 0 0 0 0 0 0 0 0
0 0 0 0 0 0 0 0 0 0 0 0 0 0 0 0 0 0 0 0 0 0 0 0 0 0 0 0 0 0 0 0 0 0 0 0 0 0 0 0 0 0 0 0 0 0 0 0 0
0 0 0 0 0 0 0 0 0 0 0 0 0 0 0 0 0 0 0 0 0 0 0 0 0 0 0 0 0 0 0 0 0 0 0 0 0 0 0 0 0 0 0 0 0 0 0 0 0
0 0 0 0 0 0 0 0 0 0 0 0 0 0 0 0 0 0 0 0 0 0 0 0 0 0 0 0 0 0 0 0 0 0 0 0 0 0 0 0 0 0 0 0 0 0 0 0 0
0 0 0 0 0 0 0 0 0 0 0 0 0 0 0 0 0 0 0 0 0 0 0 0 0 0 0 0 0 0 0 0 0 0 0 0 0 0 0 0 0 0 0 0 0 0 0 0 0
0 0 0 0 0 0 0 0 0 0 0 0 0 0 0 0 0 0 0 0 0 0 0 0 0 0 0 0 0 0 0 0 0 0 0 0 0 0 0 0 0 0 0 0 0 0 0 0 0
0 0 0 0 0 0 0 0 0 0 0 0 0 0 0 0 0 0 0 0 0 0 0 0 0 0 0 0 0 0 0 0 0 0 0 0 0 0 0 0 0 0 0 0 0 0 0 0 0
0 0 0 0 0 0 0 0 0 0 0 0 0 0 0 0 0 0 0 0 0 0 0 0 0 0 0 0 0 0 0 0 0 0 0 0 0 0 0 0 0 0 0 0 0 0 0 0 0
0 0 0 0 0 0 0 0 0 0 0 0 0 0 0 0 0 0 0 0 0 0 0 0 0 0 0 0 0 0 0 0 0 0 0 0 0 0 0 0 0 0 0 0 0 0 0 0 0
0 0 0 0 0 0 0 0 0 0 0 0 0 0 0 0 0 0 0 0 0 0 0 0 0 0 0 0 0 0 0 0 0 0 0 0 0 0 0 0 0 0 0 0 0 0 0 0 0
0 0 0 0 0 0 0 0 0 0 0 0 0 0 0 0 0 0 0 0 0 0 0 0 0 0 0 0 0 0 0 0 0 0 0 0 0 0 0 0 0 0 0 0 0 0 0 0 0
0 0 0 0 0 0 0 0 0 0 0 0 0 0 0 0 0 0 0 0 0 0 0 0 0 0 0 0 0 0 0 0 0 0 0 0 0 0 0 0 0 0 0 0 0 0 0 0 0
0 0 0 0 0 0 0 0 0 0 0 0 0 0 0 0 0 0 0 0 0 0 0 0 0 0 0 0 0 0 0 0 0 0 0 0 0 0 0 0 0 0 0 0 0 0 0 0 0
0 0 0 0 0 0 0 0 0 0 0 0 0 0 0 0 0 0 0 0 0 0 0 0 0 0 0 0 0 0 0 0 0 0 0 0 0 0 0 0 0 0 0 0 0 0 0 0 0
0 0 0 0 0 0 0 0 0 0 0 0 0 0 0 0 0 0 0 0 0 0 0 0 0 0 0 0 0 0 0 0 0 0 0 0 0 0 0 0 0 0 0 0 0 0 0 0 0
0 0 0 0 0 0 0 0 0 0 0 0 0 0 0 0 0 0 0 0 0 0 0 0 0 0 0 0 0 0 0 0 0 0 0 0 0 0 0 0 0 0 0 0 0 0 0 0 0
0 0 0 0 0 0 0 0 0 0 0 0 0 0 0 0 0 0 0 0 0 0 0 0 0 0 0 0 0 0 0 0 0 0 0 0 0 0 0 0 0 0 0 0 0 0 0 0 0
0 0 0 0 0 0 0 0 0 0 0 0 0 0 0 0 0 0 0 0 0 0 0 0 0 0 0 0 0 0 0 0 0 0 0 0 0 0 0 0 0 0 0 0 0 0 0 0 0
0 0 0 0 0 0 0 0 0 0 0 0 0 0 0 0 0 0 0 0 0 0 0 0 0 0 0 0 0 0 0 0 0 0 0 0 0 0 0 0 0 0 0 0 0 0 0 0 0
0 0 0 0 0 0 0 0 0 0 0 0 0 0 0 0 0 0 0 0 0 0 0 0 0 0 0 0 0 0 0 0 0 0 0 0 0 0 0 0 0 0 0 0 0 0 0 0 0
0 0 0 0 0 0 0 0 0 0 0 0 0 0 0 0 0 0 0 0 0 0 0 0 0 0 0 0 0 0 0 0 0 0 0 0 0 0 0 0 0 0 0 0 0 0 0 0 0
0 0 0 0 0 0 0 0 0 0 0 0 0 0 0 0 0 0 0 0 0 0 0 0 0 0 0 0 0 0 0 0 0 0 0 0 0 0 0 0 0 0 0 0 0 0 0 0 0
0 0 0 0 0 0 0 0 0 0 0 0 0 0 0 0 0 0 0 0 0 0 0 0 0 0 0 0 0 0 0 0 0 0 0 0 0 0 0 0 0 0 0 0 0 0 0 0 0
0 0 0 0 0 0 0 0 0 0 0 0 0 0 0 0 0 0 0 0 0 0 0 0 0 0 0 0 0 0 0 0 0 0 0 0 0 0 0 0 0 0 0 0 0 0 0 0 0
0 0 0 0 0 0 0 0 0 0 0 0 0 0 0 0 0 0 0 0 0 0 0 0 0 0 0 0 0 0 0 0 0 0 0 0 0 0 0 0 0 0 0 0 0 0 0 0 0
0 0 0 0 0 0 0 0 0 0 0 0 0 0 0 0 0 0 0 0 0 0 0 0 0 0 0 0 0 0 0 0 0 0 0 0 0 0 0 0 0 0 0 0 0 0 0 0 0
0 0 0 0 0 0 0 0 0 0 0 0 0 0 0 0 0 0 0 0 0 0 0 0 0 0 0 0 0 0 0 0 0 0 0 0 0 0 0 0 0 0 0 0 0 0 0 0 0
0 0 0 0 0 0 0 0 0 0 0 0 0 0 0 0 0 0 0 0 0 0 0 0 0 0 0 0 0 0 0 0 0 0 0 0 0 0 0 0 0 0 0 0 0 0 0 0 0
0 0 0 0 0 0 0 0 0 0 0 0 0 0 0 0 0 0 0 0 0 0 0 0 0 0 0 0 0 0 0 0 0 0 0 0 0 0 0 0 0 0 0 0 0 0 0 0 0
Wind_Speed
3 2 3 4 6 3 4 6 4 3 4 3 3 6 8 8 7 5 2 10 11 12 12 15 20 19 19 18 17 15 14 13 13 12 12 12 12 12 12 12 13 13 13 13 13 12 13 13 13
1 2 4 5 4 2 7 6 6 7 4 2 2 3 4 4 2 4 5 8 12 14 11 11 20 20 19 19 17 16 15 14 13 13 12 12 12 12 12 12 12 13 13 13 13 12 12 12 12
1 3 4 4 4 7 7 6 7 4 3 2 2 2 4 4 4 7 6 11 12 12 9 13 21 21 20 19 18 17 15 14 13 13 12 12 12 12 12 12 12 12 13 12 12 12 12 12 12
3 4 5 3 7 8 7 4 3 2 2 3 3 2 1 1 5 6 9 12 13 11 9 12 21 21 20 20 19 17 16 15 14 13 12 12 12 12 12 12 12 12 12 12 11 11 11 11 11
4 4 1 3 7 6 6 6 4 3 3 3 5 4 2 2 3 8 13 13 14 11 8 11 20 21 20 20 19 18 17 15 14 13 12 12 12 12 11 11 11 11 11 11 11 10 10 10 10
4 4 3 6 8 6 6 5 4 4 4 3 5 5 3 2 5 9 11 11 11 11 9 10 20 20 20 20 19 18 17 16 15 14 13 12 12 12 11 11 10 10 10 10 9 9 9 9 9
5 4 5 5 5 6 6 5 6 6 5 7 8 7 2 2 5 9 8 9 9 9 8 8 10 14 18 19 19 18 17 16 15 14 13 12 12 12 11 10 10 9 9 9 8 8 8 8 8
5 4 4 5 5 7 4 3 4 7 6 4 8 9 7 6 9 10 9 8 8 7 7 7 7 9 10 12 17 17 17 16 16 14 12 12 11 10 11 9 9 8 8 7 7 7 6 7 7
4 3 6 7 7 6 2 2 2 2 4 3 3 3 2 14 15 13 10 8 9 10 7 7 7 8 8 8 12 14 15 15 14 12 12 10 5 5 6 6 8 8 7 6 5 5 6 6 6
5 7 10 7 6 4 2 2 2 1 2 2 1 3 7 15 17 17 16 17 17 16 12 8 8 9 9 8 7 6 7 8 7 6 7 5 4 4 5 6 6 6 5 5 4 5 6 6 3
8 9 7 7 6 3 3 3 2 4 4 7 8 8 12 14 15 16 17 17 18 16 14 12 10 9 9 7 6 4 4 5 6 7 7 5 4 3 3 2 2 2 3 3 3 4 3 3 2
7 7 7 5 5 5 4 3 3 6 8 5 6 11 14 18 18 18 18 16 13 13 15 13 12 11 10 8 6 6 5 5 5 6 8 6 4 3 3 2 2 1 1 2 2 2 2 2 2
9 6 7 8 7 6 5 6 5 7 7 3 4 11 15 18 18 16 12 10 11 14 15 14 14 13 11 9 7 7 7 6 6 6 7 7 5 5 4 3 2 2 2 2 1 1 1 2 2
8 9 9 7 7 5 7 8 5 9 4 2 6 11 14 17 17 11 10 12 14 15 16 15 16 15 13 11 9 8 7 7 7 7 7 8 6 5 5 4 3 2 2 2 2 2 1 1 1
5 6 8 8 8 6 4 10 10 10 5 6 7 9 11 13 11 13 16 16 17 16 15 16 16 16 15 13 11 8 8 8 8 7 8 8 7 7 6 4 4 3 3 3 2 2 2 1 1
5 6 9 8 8 8 8 14 9 8 8 9 9 9 10 11 11 12 12 12 12 12 14 16 14 16 17 14 11 9 8 9 7 7 8 9 9 8 6 5 5 4 3 3 3 2 2 1 1
6 9 11 8 8 8 10 11 9 8 9 10 10 10 10 11 11 11 11 11 12 14 15 16 16 17 17 15 11 9 8 9 8 7 8 9 10 9 7 6 5 5 4 3 3 2 2 1 1
10 9 8 10 6 9 10 10 8 5 8 10 10 9 10 12 15 14 13 12 12 12 13 15 16 15 14 11 8 7 8 8 8 8 9 11 10 10 8 6 6 6 4 4 3 3 2 2 2
8 8 9 7 6 8 11 13 13 9 7 9 9 9 11 13 13 10 11 11 10 11 13 16 17 16 14 12 12 12 12 11 10 9 10 12 11 11 9 6 6 6 6 6 6 3 3 2 2
11 10 9 5 5 7 7 11 11 10 10 11 11 12 12 11 9 9 9 10 12 14 16 17 18 17 17 15 14 11 9 7 7 7 9 11 12 12 10 9 7 7 6 6 6 4 3 2 2
16 16 12 6 1 2 3 8 9 8 8 9 10 11 10 13 13 11 10 11 12 14 16 16 18 19 19 16 9 7 5 4 6 9 10 12 13 12 11 11 9 8 7 7 7 6 6 4 2
20 14 10 8 5 5 4 7 9 8 8 9 12 11 12 12 12 11 11 10 12 15 14 15 17 17 17 16 14 16 13 12 13 10 10 10 12 12 12 11 10 9 7 7 7 6 5 5 3
9 10 11 10 8 7 5 6 9 5 9 11 13 13 13 13 12 12 11 12 12 11 11 13 14 15 15 17 18 18 14 11 7 6 10 10 10 11 12 11 10 10 8 8 8 7 6 5 5
6 6 5 5 6 14 15 10 10 8 12 9 10 12 12 12 11 10 9 8 7 7 8 10 12 13 15 17 18 18 16 12 11 10 12 10 7 8 11 11 10 10 8 9 9 8 8 6 5
11 9 7 8 10 12 10 11 13 10 10 12 13 12 10 9 9 9 8 8 8 8 9 9 12 13 14 17 17 18 17 16 16 14 13 11 8 8 11 10 10 9 9 9 8 8 8 7 7
16 15 10 9 8 5 7 13 11 10 9 9 10 9 8 8 8 9 9 8 8 8 9 10 12 12 13 16 16 14 14 11 10 12 11 12 10 10 12 12 11 10 10 9 8 7 7 6 6
14 14 7 3 3 4 7 7 10 6 7 9 10 9 10 9 9 8 7 7 7 8 9 10 11 11 12 14 13 13 13 12 11 11 10 9 8 8 11 12 11 10 10 10 10 7 7 7 6
9 10 7 8 8 7 6 7 8 7 11 11 10 11 11 9 8 7 7 7 6 6 6 7 8 10 10 11 12 10 12 12 11 10 11 10 9 9 11 11 11 10 10 10 9 7 7 7 6
10 11 8 7 5 6 5 9 10 12 12 13 13 11 10 10 9 7 6 5 5 5 6 6 7 7 8 10 10 10 10 10 10 10 11 10 10 11 12 12 11 11 11 10 9 8 8 8 6
8 10 9 9 7 6 5 9 6 9 8 9 10 9 8 7 6 6 5 5 5 6 6 6 7 7 8 8 9 9 10 10 10 10 10 10 11 11 11 11 11 11 11 11 11 10 9 9 9
Wind_Direction
12 61 78 61 58 53 239 240 227 243 228 216 172 162 168 171 172 201 143 146 142 153 167 171 163 159 153 148 143 140 138 135 130 127 123 119 115 111 106 102 98 94 91 88 86 86 85 83 79
96 99 60 66 102 220 255 238 226 224 212 121 101 125 150 200 187 140 147 167 150 155 163 165 163 158 154 149 145 144 142 139 134 131 128 125 120 115 110 106 102 98 94 91 89 89 89 86 83
115 61 91 94 159 200 235 230 227 246 220 190 156 179 181 185 174 178 178 157 148 155 160 166 162 159 156 152 149 148 145 142 139 136 133 128 123 118 112 108 105 101 98 95 93 92 91 89 86
91 53 62 111 226 227 227 242 211 230 235 203 162 160 229 348 178 176 149 151 149 154 158 167 163 162 159 156 153 151 150 147 145 141 137 132 128 121 116 112 108 104 102 100 97 94 93 91 88
67 89 120 242 241 245 240 248 224 219 211 193 157 163 190 18 96 131 146 154 155 156 158 168 166 165 161 159 157 155 154 152 149 146 142 138 133 126 121 118 114 110 107 103 99 96 95 91 89
72 87 160 235 247 258 254 227 196 217 212 189 160 161 189 94 128 145 150 153 156 156 158 168 170 167 164 163 161 159 158 157 154 151 148 142 137 134 130 126 122 117 111 105 101 99 96 91 88
134 143 205 223 251 263 248 197 194 203 211 206 172 156 226 166 156 141 138 139 146 153 157 169 170 169 169 166 165 163 162 160 158 156 152 147 144 142 138 133 128 122 114 109 105 102 99 93 89
153 151 212 218 225 253 247 204 205 186 214 185 153 159 205 182 142 126 122 132 146 156 163 169 166 163 164 166 167 165 165 164 162 159 153 149 150 149 143 138 136 129 123 118 110 103 97 90 86
127 155 216 212 204 239 250 240 252 187 154 164 190 185 196 133 136 134 138 150 165 173 177 173 167 162 159 161 169 166 167 168 165 160 154 147 133 128 133 142 147 142 133 126 115 104 93 81 68
161 206 220 210 201 219 254 232 228 139 166 187 162 67 117 141 151 158 167 174 180 185 186 180 173 166 163 167 165 162 162 163 156 148 145 132 128 130 132 157 159 151 139 127 110 92 75 68 52
189 213 220 227 226 232 251 253 212 167 214 210 197 172 155 160 166 174 180 183 186 184 185 185 179 171 169 167 161 158 154 152 149 148 143 138 133 132 125 130 142 120 105 80 71 59 55 59 56
209 230 219 223 214 225 233 245 234 202 227 230 206 164 166 171 180 185 187 188 181 182 189 186 182 178 176 170 167 163 160 159 159 158 151 145 144 145 146 143 137 119 104 103 82 74 63 55 47
224 240 228 229 233 236 243 241 239 242 249 263 150 156 180 184 191 195 190 180 179 187 190 189 186 185 181 175 175 173 172 169 164 162 161 158 158 162 160 157 155 157 144 137 127 113 82 62 44
221 226 241 238 232 226 229 249 226 247 233 191 170 182 193 196 195 185 178 183 190 193 192 190 192 190 185 185 183 180 176 169 167 170 170 166 165 166 165 165 168 176 170 160 151 148 125 94 62
215 230 253 238 222 221 207 258 229 234 209 208 207 205 206 211 201 195 194 193 194 194 191 192 193 192 192 191 187 182 178 174 177 177 173 173 171 171 169 168 177 184 170 156 138 127 108 97 77
193 211 238 236 203 201 181 247 246 223 199 216 219 215 216 220 213 212 205 201 194 188 190 193 193 195 196 195 190 186 182 181 182 178 178 179 178 173 170 174 185 178 162 155 146 135 119 104 87
203 212 222 235 203 181 191 237 245 217 197 218 222 217 218 224 225 221 212 205 195 191 190 192 194 196 198 196 191 187 182 186 184 180 182 184 183 177 174 181 183 167 160 160 155 133 139 137 118
201 205 210 213 205 182 207 235 251 227 198 219 225 222 220 223 226 220 212 208 200 194 192 193 196 197 194 191 186 184 186 190 188 188 188 185 186 182 177 180 177 165 160 160 154 140 121 122 127
196 197 214 217 198 185 218 235 245 240 217 228 231 226 224 227 232 225 214 207 198 194 193 194 195 195 188 190 192 194 198 195 194 193 189 187 186 184 182 181 174 172 175 174 161 142 138 123 121
214 219 224 236 207 199 230 245 246 237 222 219 223 224 224 227 234 228 217 206 200 199 198 198 198 194 191 195 196 197 191 190 190 187 190 190 188 186 186 183 180 179 171 166 164 151 140 131 135
217 217 215 213 194 223 249 274 253 248 226 229 228 225 223 220 225 225 217 211 204 204 202 200 200 196 195 192 179 162 149 149 177 192 195 195 192 189 187 186 181 179 174 178 177 168 156 157 149
226 216 209 213 217 240 204 263 260 242 245 235 233 230 229 227 224 222 215 212 209 210 204 202 199 196 193 184 181 181 187 193 196 190 190 188 190 190 188 185 183 181 180 178 179 173 164 150 158
220 189 203 216 223 246 225 242 265 237 242 242 235 231 231 229 224 224 217 213 212 207 200 200 196 194 188 186 188 190 196 197 178 166 176 184 189 190 188 186 184 183 183 181 175 170 171 164 160
175 150 186 210 212 238 225 221 260 218 218 229 231 230 230 229 226 227 223 210 206 195 191 189 189 191 187 188 189 193 194 183 170 174 182 185 184 187 189 186 185 185 182 181 179 177 175 174 164
186 168 188 200 211 234 200 211 243 220 214 216 224 230 229 224 223 222 214 204 197 187 185 183 185 189 187 188 192 195 194 187 185 183 184 182 181 187 191 185 185 184 184 180 173 173 177 175 172
196 187 195 196 201 224 183 219 243 225 219 223 231 234 232 225 219 214 208 201 195 190 184 181 185 188 186 189 193 193 190 189 189 186 183 186 190 190 185 185 186 183 179 175 171 171 176 174 177
187 199 192 178 181 197 221 253 287 246 238 232 233 231 231 226 217 212 206 197 191 186 185 184 183 184 187 190 189 188 188 188 187 183 181 185 185 178 178 182 181 179 176 174 170 175 174 171 177
188 171 168 192 187 217 232 232 232 211 216 223 223 222 225 219 213 209 204 196 189 184 178 174 179 184 185 186 186 187 189 188 183 178 181 181 177 172 173 177 177 176 175 173 172 171 171 170 174
176 182 179 184 198 186 219 247 217 204 204 209 215 216 215 211 206 203 198 188 174 164 163 165 170 172 177 181 181 180 182 180 177 179 182 178 173 172 176 177 176 176 176 174 174 174 169 172 171
184 181 175 189 203 194 202 257 239 212 213 207 213 215 213 208 200 191 183 167 163 166 165 167 168 172 177 176 175 177 174 172 176 178 177 173 173 176 176 174 175 176 177 176 176 174 174 176 178